Kremmling, CO

7:13 PM MST on November 21, 2019 (GMT -0700)
Kremmling

Weather History for K20V - September, 2019

Change the Weather History Date:

Tuesday, September 24, 2019

  Actual Average Record
Temperature  
Mean Temperature 50 °F -  
Max Temperature 73 °F - 79 °F (2015)
Min Temperature 28 °F - 24 °F (2003)
Degree Days  
Heating Degree Days 14    
Month to date heating degree days 194  
Cooling Degree Days 0    
Month to date cooling degree days 4  
Moisture  
Dew Point 26 °F    
Average Humidity 46    
Maximum Humidity 80    
Minimum Humidity 17    
Precipitation  
Precipitation 0.00 in - 0.23 in (2007)
Snow  
Snow 0.00 in - - ()
Snow Depth 0.00 in    
Sea Level Pressure  
Sea Level Pressure 30.27 in    
Wind  
Wind Speed 2 mph ()    
Max Wind Speed 14 mph    
Max Gust Speed 21 mph    
Visibility 10.0 miles    
Events      
T = Trace of Precipitation, MM = Missing Value Source: Averaged Metar Reports

Daily Weather History Graph

Daily Weather History Graph

Search for Another Location

Airport or City:

Astronomy

Sep. 24, 2019 Rise Set
Actual Time 6:54 AM MDT 6:59 PM MDT
Civil Twilight 6:27 AM MDT 7:26 PM MDT
Nautical Twilight 5:56 AM MDT 7:58 PM MDT
Astronomical Twilight 5:24 AM MDT 8:30 PM MDT
Moon 1:42 AM MDT (9/24) 4:47 PM MDT (9/24)
Length of Visible Light 12h 58m
Length of Day
12h 04m
Waning Crescent, 22% of the Moon is Illuminated
Sep 24
Waning Crescent
Sep 28
New
Oct 5
First Quarter
Oct 13
Full
Oct 21
Last Quarter

Hourly Weather History & Observations

Time (MDT) Temp. Windchill Dew Point Humidity Pressure Visibility Wind Dir Wind Speed Gust Speed Precip Events Conditions
12:06 AM 37.4 °F - 24.8 °F 60% 30.29 in 10.0 mi Calm Calm - N/A   Clear
12:29 AM 37.4 °F 34.9 °F 23.0 °F 56% 30.30 in 10.0 mi South 3.5 mph - N/A   Clear
12:47 AM 35.6 °F 31.7 °F 23.0 °F 60% 30.30 in 10.0 mi ESE 4.6 mph - N/A   Clear
1:06 AM 35.6 °F - 24.8 °F 65% 30.30 in 10.0 mi Calm Calm - N/A   Clear
1:30 AM 35.6 °F - 24.8 °F 65% 30.31 in 10.0 mi Calm Calm - N/A   Clear
1:48 AM 35.6 °F 32.8 °F 23.0 °F 60% 30.31 in 10.0 mi ESE 3.5 mph - N/A   Clear
2:30 AM 33.8 °F - 23.0 °F 65% 30.31 in 10.0 mi Calm Calm - N/A   Clear
2:47 AM 30.2 °F - 21.2 °F 69% 30.31 in 10.0 mi Calm Calm - N/A   Clear
3:06 AM 32.0 °F - 24.8 °F 75% 30.31 in 10.0 mi Calm Calm - N/A   Clear
3:30 AM 32.0 °F - 24.8 °F 75% 30.32 in 10.0 mi Calm Calm - N/A   Clear
3:48 AM 30.2 °F - 24.8 °F 80% 30.32 in 10.0 mi Calm Calm - N/A   Clear
4:06 AM 32.0 °F - 23.0 °F 69% 30.32 in 10.0 mi Calm Calm - N/A   Clear
4:30 AM 30.2 °F 26.7 °F 23.0 °F 75% 30.32 in 10.0 mi SE 3.5 mph - N/A   Clear
4:48 AM 30.2 °F - 23.0 °F 75% 30.33 in 10.0 mi Calm Calm - N/A   Clear
5:06 AM 30.2 °F - 21.2 °F 69% 30.33 in 10.0 mi Calm Calm - N/A   Clear
5:30 AM 28.4 °F - 19.4 °F 69% 30.33 in 10.0 mi Calm Calm - N/A   Clear
5:48 AM 30.2 °F - 19.4 °F 64% 30.34 in 10.0 mi Calm Calm - N/A   Clear
6:08 AM 30.2 °F - 21.2 °F 69% 30.34 in 10.0 mi Calm Calm - N/A   Clear
6:26 AM 28.4 °F - 21.2 °F 74% 30.35 in 10.0 mi Calm Calm - N/A   Clear
6:50 AM 28.4 °F - 23.0 °F 80% 30.36 in 10.0 mi Calm Calm - N/A   Clear
7:06 AM 28.4 °F - 23.0 °F 80% 30.36 in 10.0 mi Calm Calm - N/A   Clear
7:30 AM 30.2 °F - 21.2 °F 69% 30.36 in 10.0 mi Calm Calm - N/A   Clear
7:48 AM 32.0 °F - 23.0 °F 69% 30.37 in 10.0 mi Calm Calm - N/A   Clear
8:06 AM 33.8 °F - 23.0 °F 65% 30.37 in 10.0 mi Calm Calm - N/A   Clear
8:30 AM 35.6 °F - 24.8 °F 65% 30.37 in 10.0 mi Calm Calm - N/A   Clear
8:48 AM 37.4 °F - 24.8 °F 60% 30.37 in 10.0 mi Calm Calm - N/A   Clear
9:06 AM 41.0 °F - 24.8 °F 53% 30.37 in 10.0 mi Calm Calm - N/A   Clear
9:30 AM 42.8 °F - 23.0 °F 46% 30.37 in 10.0 mi Calm Calm - N/A   Clear
9:48 AM 48.2 °F - 24.8 °F 40% 30.37 in 10.0 mi Calm Calm - N/A   Clear
10:06 AM 48.2 °F - 24.8 °F 40% 30.35 in 10.0 mi Calm Calm - N/A   Clear
10:32 AM 50.0 °F - 24.8 °F 37% 30.35 in 10.0 mi Calm Calm - N/A   Clear
10:50 AM 53.6 °F - 24.8 °F 33% 30.34 in 10.0 mi Calm Calm - N/A   Clear
11:12 AM 57.2 °F - 26.6 °F 31% 30.32 in 10.0 mi South 3.5 mph - N/A   Clear
11:30 AM 59.0 °F - 26.6 °F 29% 30.31 in 10.0 mi Calm Calm - N/A   Clear
11:48 AM 60.8 °F - 26.6 °F 27% 30.29 in 10.0 mi Calm Calm - N/A   Clear
12:12 PM 62.6 °F - 26.6 °F 26% 30.28 in 10.0 mi Calm Calm - N/A   Clear
12:30 PM 64.4 °F - 28.4 °F 26% 30.27 in 10.0 mi Calm Calm - N/A   Clear
12:48 PM 68.0 °F - 28.4 °F 23% 30.26 in 10.0 mi Calm Calm - N/A   Clear
1:12 PM 68.0 °F - 30.2 °F 24% 30.24 in 10.0 mi Calm Calm - N/A   Clear
1:30 PM 68.0 °F - 28.4 °F 23% 30.23 in 10.0 mi ENE 5.8 mph - N/A   Clear
1:48 PM 69.8 °F - 28.4 °F 21% 30.22 in 10.0 mi North 3.5 mph - N/A   Clear
2:12 PM 68.0 °F - 26.6 °F 21% 30.22 in 10.0 mi Calm Calm - N/A   Clear
2:30 PM 71.6 °F - 28.4 °F 20% 30.21 in 10.0 mi NNE 3.5 mph - N/A   Clear
2:48 PM 69.8 °F - 28.4 °F 21% 30.20 in 10.0 mi West 3.5 mph - N/A   Clear
3:12 PM 73.4 °F - 28.4 °F 19% 30.19 in 10.0 mi SSW 9.2 mph - N/A   Clear
3:30 PM 73.4 °F - 30.2 °F 20% 30.19 in 10.0 mi WNW 6.9 mph - N/A   Clear
3:48 PM 73.4 °F - 32.0 °F 22% 30.19 in 10.0 mi WNW 6.9 mph 16.1 mph N/A   Clear
4:12 PM 73.4 °F - 30.2 °F 20% 30.19 in 10.0 mi NW 6.9 mph 17.3 mph N/A   Clear
4:30 PM 73.4 °F - 32.0 °F 22% 30.19 in 10.0 mi NNW 11.5 mph 17.3 mph N/A   Clear
4:48 PM 71.6 °F - 30.2 °F 22% 30.18 in 10.0 mi NNW 9.2 mph 16.1 mph N/A   Clear
5:12 PM 69.8 °F - 23.0 °F 17% 30.18 in 10.0 mi NNW 13.8 mph 20.7 mph N/A   Clear
5:30 PM 69.8 °F - 23.0 °F 17% 30.19 in 10.0 mi NNW 8.1 mph 17.3 mph N/A   Clear
5:48 PM 68.0 °F - 23.0 °F 18% 30.19 in 10.0 mi NNW 13.8 mph 20.7 mph N/A   Clear
6:12 PM 68.0 °F - 28.4 °F 23% 30.18 in 10.0 mi North 6.9 mph - N/A   Clear
6:30 PM 66.2 °F - 28.4 °F 24% 30.19 in 10.0 mi NNW 8.1 mph - N/A   Clear
6:48 PM 62.6 °F - 26.6 °F 26% 30.19 in 10.0 mi NNW 11.5 mph 18.4 mph N/A   Clear
7:12 PM 60.8 °F - 28.4 °F 29% 30.19 in 10.0 mi NNW 6.9 mph - N/A   Clear
7:30 PM 60.8 °F - 28.4 °F 29% 30.20 in 10.0 mi North 3.5 mph - N/A   Clear
7:48 PM 55.4 °F - 28.4 °F 36% 30.20 in 10.0 mi West 4.6 mph - N/A   Clear
8:12 PM 55.4 °F - 28.4 °F 36% 30.21 in 10.0 mi Calm Calm - N/A   Clear
8:30 PM 53.6 °F - 26.6 °F 35% 30.21 in 10.0 mi East 3.5 mph - N/A   Clear
8:53 PM 48.2 °F - 28.4 °F 46% 30.22 in 10.0 mi South 3.5 mph - N/A   Clear
9:12 PM 48.2 °F - 28.4 °F 46% 30.22 in 10.0 mi SSE 4.6 mph - N/A   Clear
9:30 PM 48.2 °F - 30.2 °F 50% 30.22 in 10.0 mi Calm Calm - N/A   Clear
9:48 PM 48.2 °F - 30.2 °F 50% 30.23 in 10.0 mi Calm Calm - N/A   Clear
10:11 PM 46.4 °F - 30.2 °F 53% 30.24 in 10.0 mi Calm Calm - N/A   Clear
10:28 PM 46.4 °F 44.3 °F 30.2 °F 53% 30.24 in 10.0 mi ESE 4.6 mph - N/A   Clear
10:52 PM 42.8 °F 40.1 °F 28.4 °F 57% 30.24 in 10.0 mi SSE 4.6 mph - N/A   Clear
11:12 PM 41.0 °F - 28.4 °F 61% 30.24 in 10.0 mi Calm Calm - N/A   Clear
11:30 PM 41.0 °F - 28.4 °F 61% 30.24 in 10.0 mi Calm Calm - N/A   Clear
11:48 PM 41.0 °F 39.0 °F 28.4 °F 61% 30.24 in 10.0 mi ESE 3.5 mph - N/A   Clear